SCP
0 0 0 0 0 0 0 -0 0 0 0 0 0 0 0 0 0 0 0 0 0 0
0 0 0 0 0 0 0 -0 0 -0 0 0 0 0 0 0 0 0 0 0 0 0
0 0 0 0 0 0 -0 -0 -0 0 0 0 0 0 0 0 0 0 0 0 0 0
0 0 0 0 0 0 -0 0 -0 0 0 0 0 0 0 0 0 0 0 0 0 0
0 0 0 0 0 0 -0 -0 -0 0 -0 0 0 -0 0 0 0 0 0 0 0 0
0 0 0 0 0 0 0 0 0 0 0 0 0 -0 0 0 0 0 0 0 0 0
0 0 0 0 0 0 0 0 0 0 0 0 0 -0 -0 0 0 0 0 0 0 0
0 0 0 0 0 0 0 0 0 0 0 0 -0 -0 -0 -0 -0 0 0 0 0 0
0 0 0 0 -0 0 0 0 0 0 0 0 0 -0 0 0 0 -0 -0 -0 0 -0
0 0 0 0 0 0 0 0 0 0 0 0 0 0 0 -0 0 0 -0 0 -0 -0
-0 0 0 0 0 0 0 0 0 0 0 0 0 0 0 -0 0 -0 -0 -0 -0 -0
-0 0 0 0 0 0 0 0 0 0 0 0 0 0 0 0 -0 -0 0 0 0 -0
-0 0 0 0 0 0 0 0 0 0 0 0 0 0 -0 0 0 -0 -0 -0 0 0
-0 -0 0 0 0 0 0 0 0 -0 0 -0 0 -0 -0 -0 -0 0 0 0 0 0
Wind_Speed_500mb
22 22 23 20 21 23 20 22 26 23 25 26 32 38 40 45 44 45 46 43 43 37
16 20 23 29 26 21 23 21 26 27 29 30 33 37 40 40 51 45 47 46 47 35
10 13 17 19 26 25 27 30 29 30 29 33 34 39 44 48 44 50 49 47 36 28
5 12 14 15 26 25 23 26 29 29 31 33 36 39 39 43 46 48 47 36 20 23
8 9 13 22 24 33 31 25 24 27 33 31 36 35 35 40 40 42 44 38 27 25
12 11 14 17 22 24 27 38 39 35 29 31 35 37 38 36 41 39 37 37 20 27
18 12 24 16 23 23 22 37 35 31 31 25 24 27 34 39 39 40 33 32 27 31
24 19 21 18 20 20 20 24 31 32 31 25 29 33 41 40 39 39 38 35 44 68
26 24 25 24 22 22 25 22 27 25 28 27 32 32 31 35 38 42 46 45 49 61
30 29 29 28 27 27 23 24 20 12 23 34 35 36 31 35 38 38 39 36 41 43
32 33 30 30 31 33 32 25 16 13 25 27 30 31 32 34 36 41 43 39 38 42
35 37 36 35 35 34 37 33 25 12 22 26 28 29 30 26 32 37 44 34 33 38
35 40 41 41 40 34 34 32 30 23 14 20 27 30 33 33 21 31 35 31 31 31
37 41 41 43 41 40 37 30 30 24 24 20 22 30 33 35 29 29 31 28 32 31
Wind_Direction_500mb
48 85 81 55 53 66 59 101 128 125 133 144 155 158 161 162 163 151 158 158 150 146
61 80 72 78 65 70 82 100 117 130 125 139 149 151 157 155 149 154 149 140 147 149
17 52 65 58 72 76 93 101 102 111 119 129 136 139 144 150 146 154 142 137 125 119
75 73 60 70 91 76 98 106 114 113 120 130 138 143 142 142 149 156 167 159 124 108
135 96 86 92 99 86 89 102 117 123 124 119 133 140 146 149 156 153 155 158 143 111
150 135 113 116 100 96 89 94 94 102 104 117 131 146 156 154 152 153 162 160 176 154
159 162 123 100 108 107 103 96 80 78 95 102 125 126 135 154 152 158 166 176 190 186
167 155 133 117 115 114 108 103 120 123 98 87 104 124 124 124 128 138 140 142 155 155
172 162 159 148 142 130 125 119 107 120 135 120 103 105 122 133 125 124 137 135 136 169
179 176 171 161 152 148 144 133 143 137 125 132 130 125 118 121 129 135 137 141 147 151
183 183 176 169 166 165 160 157 162 158 145 139 133 130 126 128 128 130 127 126 138 152
187 189 182 178 185 182 168 167 157 178 162 163 156 149 137 135 139 137 140 149 156 158
192 193 191 186 192 187 174 171 161 172 185 178 177 170 162 147 162 159 156 167 164 173
195 199 198 194 204 192 178 178 171 188 189 217 190 186 176 161 171 180 179 180 180 176
Wind_Speed_850mb
22 22 23 20 21 23 20 22 26 23 25 26 32 38 40 45 44 45 46 43 43 37
16 20 23 29 26 21 23 21 26 27 29 30 33 37 40 40 51 45 47 46 47 35
10 13 17 19 26 25 27 30 29 30 29 33 34 39 44 48 44 50 49 47 36 28
5 12 14 15 26 25 23 26 29 29 31 33 36 39 39 43 46 48 47 36 20 23
8 9 13 22 24 33 31 25 24 27 33 31 36 35 35 40 40 42 44 38 27 25
12 11 14 17 22 24 27 38 39 35 29 31 35 37 38 36 41 39 37 37 20 27
18 12 24 16 23 23 22 37 35 31 31 25 24 27 34 39 39 40 33 32 27 31
24 19 21 18 20 20 20 24 31 32 31 25 29 33 41 40 39 39 38 35 44 68
26 24 25 24 22 22 25 22 27 25 28 27 32 32 31 35 38 42 46 45 49 61
30 29 29 28 27 27 23 24 20 12 23 34 35 36 31 35 38 38 39 36 41 43
32 33 30 30 31 33 32 25 16 13 25 27 30 31 32 34 36 41 43 39 38 42
35 37 36 35 35 34 37 33 25 12 22 26 28 29 30 26 32 37 44 34 33 38
35 40 41 41 40 34 34 32 30 23 14 20 27 30 33 33 21 31 35 31 31 31
37 41 41 43 41 40 37 30 30 24 24 20 22 30 33 35 29 29 31 28 32 31
Wind_Direction_850mb
48 85 81 55 53 66 59 101 128 125 133 144 155 158 161 162 163 151 158 158 150 146
61 80 72 78 65 70 82 100 117 130 125 139 149 151 157 155 149 154 149 140 147 149
17 52 65 58 72 76 93 101 102 111 119 129 136 139 144 150 146 154 142 137 125 119
75 73 60 70 91 76 98 106 114 113 120 130 138 143 142 142 149 156 167 159 124 108
135 96 86 92 99 86 89 102 117 123 124 119 133 140 146 149 156 153 155 158 143 111
150 135 113 116 100 96 89 94 94 102 104 117 131 146 156 154 152 153 162 160 176 154
159 162 123 100 108 107 103 96 80 78 95 102 125 126 135 154 152 158 166 176 190 186
167 155 133 117 115 114 108 103 120 123 98 87 104 124 124 124 128 138 140 142 155 155
172 162 159 148 142 130 125 119 107 120 135 120 103 105 122 133 125 124 137 135 136 169
179 176 171 161 152 148 144 133 143 137 125 132 130 125 118 121 129 135 137 141 147 151
183 183 176 169 166 165 160 157 162 158 145 139 133 130 126 128 128 130 127 126 138 152
187 189 182 178 185 182 168 167 157 178 162 163 156 149 137 135 139 137 140 149 156 158
192 193 191 186 192 187 174 171 161 172 185 178 177 170 162 147 162 159 156 167 164 173
195 199 198 194 204 192 178 178 171 188 189 217 190 186 176 161 171 180 179 180 180 176